One Loft Race

Monthly Archives: July 2017

Training Toss 2

The birds had there first toss today from our 54km point Boonooroo. They were liberated at 10.00am into a light SSE wind around 10 km/hr.

Pos Ringnumber Arrival Time OWNER
1 AU16GRPA0001353 10:51:35 Black Caviar Syndicate
2 AU16MKY 0000463 10:51:44 Ted Lewis
3 AU16AUST0010515 10:51:45 Phoenix Lofts
4 AU16SA 0017060 10:51:46 S Pradella & Watson
5 AU16RIPA0000763 10:51:48 Ted Hussie
6 AU16GYMP0000639 10:51:49 Laurie Dennis
7 AU16SA 0019852 10:51:53 S Pradella & Watson
8 AU16GYMP0000835 10:51:53 Humpty Doo
9 AU16MARY0000867 10:51:53 Darnell & Minto
10 AU16LMAC0002003 10:51:54 Rodney Howe
10 AU16AUST0010530 10:51:54 Phoenix Lofts
12 AU16STAR0000055 10:51:55 Starkoff Loft
13 AU16RIPA0000772 10:51:56 Peter & Ted
14 AU16MOON0000028 10:51:56 Robin White
15 AU16SAMD0000017 10:51:57 Sunswift Lofts
16 AU16IRPC0000279 10:51:57 Team Outback
17 AU16QPF 0007555 10:51:57 Coal Port Syndicate
18 AU16GRPA0001406 10:51:57 Black Caviar Syndicate
19 AU16BHPC0000335 10:51:58 Bundy Snow Syndicate
20 AU16COFF0000524 10:51:58 Born to Fly
21 AU16SC 0000059 10:51:59 VIP Lofts
22 AU16MKY 0000207 10:51:59 Russ Beetham
23 AU16AUB 0001174 10:52:00 Shane Q
24 AU16BALB0000076 10:52:00 East & Winkler
24 AU16GLAD0000005 10:52:00 Pradella Pieds
26 AU16QPF 0005070 10:52:00 Beech & Gibbs
27 AU16MKY 0000221 10:52:00 Russ Beetham
27 AU16MARY0001253 10:52:00 Wil Connally
29 AU16WPF 0005045 10:52:01 Kauta - Wallarie
30 AU16GRPA0001422 10:52:01 Black Caviar Syndicate
31 AU16MARY0000873 10:52:02 Darnell & Minto
32 AU16QPF 0008605 10:52:02 JCV Loft
33 AU16QPF 0007551 10:52:02 Coal Port Syndicate
33 AU16QPF 0010961 10:52:02 J & K Syndicate
35 AU16AUST0010512 10:52:02 Phoenix Lofts
36 AU16QPF 0010968 10:52:03 J & K Syndicate
37 AU16GLAP0000014 10:52:03 Pradella Pieds
38 AU16CAS 0000314 10:52:03 Karma Syndicate
39 AU16GYMP0000572 10:52:04 Geoff Potts
40 AU16GRPA0001473 10:52:05 Pat & Jill Murphy
41 AU16STAR0000085 10:52:05 Starkoff Loft
42 AU16RIPA0000760 10:52:05 Peter & Ted
43 AU16SAMD0000011 10:52:06 Sunswift Lofts
43 AU16BHPC0002387 10:52:06 Graham Temperly
45 AU16SA 0019853 10:52:06 S Pradella & Watson
45 AU16AUSN0003950 10:52:06 Rob Lindsay
47 AU16SC 0000837 10:52:07 WA Virals
47 AU16MARY0000855 10:52:07 Darnell & Minto
49 AU16CAS 0000304 10:52:08 Karma Syndicate
50 AU16GLAD0000008 10:52:08 Pradella Pieds
51 AU16AUST0001801 10:52:08 Karma Syndicate
52 AU16COFF0000540 10:52:08 Hilltop Hoods
52 AU16SC 0000882 10:52:08 Egg & Bacon Syndicate
54 AU16GYMP0000687 10:52:09 Milton Mangoes
55 AU16AUB 0001156 10:52:09 Shane Q
55 AU16NRC 0003993 10:52:09 C & B Matthews
57 AU16GLAD0000013 10:52:09 Pradella Pieds
58 AU16GYMP0000567 10:52:10 M Johnston
58 AU16GYMP0000571 10:52:10 Egg & Bacon Syndicate
60 AU16GRPA0001446 10:52:10 Pat & Jill Murphy
61 AU16GYMP0000646 10:52:11 Steve Beverly
61 AU16WPF 0005056 10:52:11 Alan Bowtell
63 AU16COFF0000525 10:52:11 Born to Fly
63 AU17SAMD0000097 10:52:11 Pradella Pieds
65 AU16IRPC0000189 10:52:11 Tony Garnett
65 AU16SC 0000881 10:52:11 WA Virals
67 AU16LCPC0000760 10:52:12 Kent Yang
68 AU16OLDB0000130 10:52:13 Millrose Loft
69 AU16CCF 0005102 10:52:14 Pol Weyton
70 AU16SUNC0000014 10:52:14 Bill Groth
70 AU17SAMD0000095 10:52:14 Nigel Cofey
72 AU16GYMP0000570 10:52:14 Pat & Jill Murphy
73 AU16AUST0010513 10:52:14 Phoenix Lofts
73 AU16TCPC0001092 10:52:14 Geoff Hackett
73 AU16RIPA0000768 10:52:14 Peter & Ted
76 AU16TWMB0001858 10:52:16 Black Caviar Syndicate
77 AU16MARY0001245 10:52:16 Wil Connally
78 AU16C0FS0000547 10:52:17 Painters & Plumbers
79 AU16SA 0017055 10:52:17 S Pradella & Watson
80 AU16MKY 0000870 10:52:17 Mike Young
81 AU16QPF 0010983 10:52:18 J & K Syndicate
81 AU16TWMB0000097 10:52:18 Kauta - Wallarie
83 AU16ARM 0000304 10:52:18 Greg Page
84 AU16ROPC0001936 10:52:18 Mount Jackson Loft
84 AU16TWMB0001255 10:52:18 Bloomfield & Burton
86 AU16NRC 0002899 10:52:19 Emery & Commons
87 AU16CAS 0000607 10:52:19 Casino Crew
88 AU16TRPC0002349 10:52:20 Cane View
89 AU16QPF 0010992 10:52:20 J & K Syndicate
90 AU16TWMB0001247 10:52:20 Bloomfield & Burton
91 AU16GYMP0000526 10:52:20 Mackay Pigeons
92 AU16NRC 0002218 10:52:21 Rangeview Lofts
93 AU16GYMP0000661 10:52:21 Des Moore
94 AU16GYMP0000573 10:52:22 Pol Weyton
94 AU16LMAC0001030 10:52:22 Laurie Dennis
96 AU16RIPA0000759 10:52:22 Ted Hussie
97 AU16OLDB0000146 10:52:22 Millrose Loft
98 AU16SC 0000836 10:52:22 WA Virals
98 AU16GYMP0000580 10:52:22 Sunswift Lofts
98 AU16NRC 0002234 10:52:22 Rangeview Lofts
101 AU16AUST0001573 10:52:23 Basil George
102 AU16LCPC0000768 10:52:23 Kent Yang
103 AU16SC 0000835 10:52:24 Egg & Bacon Syndicate
104 AU16LMAC0002015 10:52:24 Rodney Howe
105 AU16GYMP0000527 10:52:25 Laurie Dennis
106 AU16QPF 0009049 10:52:26 Steve Beverly
107 AU16BALB0000320 10:52:27 Winky Pop Syndicate
108 AU16SC 0000880 10:52:27 Egg & Bacon Syndicate
109 AU16MARY0000865 10:52:28 Darnell & Minto
109 AU16COFF0000263 10:52:28 John Payne
111 AU16UNIP0000138 10:52:29 JPS Syndicate
112 AU16LMAC0001062 10:52:29 Laurie Dennis
113 AU16DALB0000355 10:52:30 Kahilipso Lofts
114 AU16GYMP0000647 10:52:30 Toowoomba Racing Pigeon Club
114 AU16RIPA0000531 10:52:30 Ken Tucker
116 AU16NRC 0003963 10:52:31 C & B Matthews
117 AU16QPF 0008218 10:52:31 Beech & Gibbs
118 AU16AUST0010531 10:52:31 Phoenix Lofts
118 AU16NRC 0001445 10:52:31 Delores & Gordon Oswald
120 AU16SA 0006274 10:52:31 Pradella Pieds
121 AU16QPF 0010970 10:52:32 J & K Syndicate
122 AU16AUSN0003972 10:52:32 Rob Lindsay
122 AU16IRPC0000195 10:52:32 Tony Garnett
124 AU16STAR0000045 10:52:33 Starkoff Loft
125 AU16TCPC0001330 10:52:33 Johnsen & Johnston
126 AU16MKY 0000440 10:52:33 Mackay Pigeons
127 AU16GC 0000756 10:52:34 Commons & Treanor
128 AU16GYMP0000838 10:52:34 Humpty Doo
128 AU16GLAD0000015 10:52:34 Pradella Pieds
130 AU16SC 0000864 10:52:35 VIP Lofts
131 AU16GRPA0001411 10:52:35 Pat & Jill Murphy
132 AU16TRPC0002883 10:52:35 Gary Harvey
132 AU16TWMB0001856 10:52:35 Black Caviar Syndicate
134 AU16GYMP0000673 10:52:35 Bloomfield & Burton
135 AU16QPF 0010929 10:52:36 J & K Syndicate
135 AU16STAR0000073 10:52:36 Starkoff Loft
137 AU16GLAP0000015 10:52:36 Pradella Pieds
138 AU16GRPA0001448 10:52:36 Pat & Jill Murphy
139 AU16STAR0000072 10:52:37 Starkoff Loft
139 AU16IRPC0000271 10:52:37 Team Outback
141 AU16LMAC0001055 10:52:38 Laurie Dennis
141 AU16IRPC0000187 10:52:38 Tony Garnett
143 AU16CCF 0005098 10:52:38 Pol Weyton
144 AU16LAKE0001616 10:52:39 VanJack Lofts
145 AU16OLDB0000133 10:52:39 Millrose Loft
146 AU16SC 0000053 10:52:40 Riley-P Syndicate
147 AU16LCPC0000761 10:52:41 Kent Yang
148 AU16WAR 0006844 10:52:41 Back of Burke Syndicate
149 AU16NRC 0002860 10:52:42 P & P Emery
150 AU16QPF 0007554 10:52:42 Coal Port Syndicate
151 AU16GYMP0000565 10:52:43 Ken Tucker
152 AU16TWMB0001862 10:52:43 Black Caviar Syndicate
153 AU16BHPC0002373 10:52:44 Graham Temperly
154 AU16TWMB0000096 10:52:44 Kauta - Wallarie
155 AU16AUST0010534 10:52:45 Phoenix Lofts
156 AU16LMAC0001044 10:52:45 Laurie Dennis
157 AU16MARY0001250 10:52:46 Wil Connally
158 AU16GRPA0001419 10:52:46 Pat & Jill Murphy
159 AU16LCPC0000762 10:52:46 Kent Yang
160 AU16MARY0001246 10:52:47 Wil Connally
161 AU16STAR0000048 10:52:47 Starkoff Loft
162 AU16QPF 0000599 10:52:48 Pat & Jill Murphy
163 AU16QPF 10955 10:52:49 J & K Syndicate
164 AU16SC 0000079 10:52:50 Egg & Bacon Syndicate
165 AU16ARM 0000312 10:52:50 Greg Page
166 AU16TWMB0000435 10:52:50 Toowoomba Racing Pigeon Club
167 AU16ARM 0000508 10:52:51 Geoff Potts
168 AU16LMAC0002017 10:52:52 Rodney Howe
169 AU16AUST0001589 10:52:53 Basil George
169 AU16ROPC0001938 10:52:53 Mount Jackson Loft
171 AU16QPF 0006149 10:52:53 Milton Mangoes
172 AU16MKY 0000220 10:52:55 Mackay Pigeons
173 AU16LCPC0000808 10:52:56 Murrumba Syndicate
174 AU16SUNC0000016 10:52:57 Bill Groth
175 AU16LAKE0001621 10:52:59 VanJack Lofts
176 AU16ARM 0000322 10:53:04 Greg Page
177 AU16AUST0001803 10:53:05 Karma Syndicate
178 AU16TCPC0001505 10:53:09 M Johnston
179 AU16WTB 0000715 10:53:12 Loongana Lofts
180 AU16GYMP0000932 10:53:30 Des Lovell
181 AU16LAKE0001626 10:53:34 VanJack Lofts
182 AU16GRPA0001401 10:53:38 Pat & Jill Murphy
183 AU16TCPC0001501 10:54:13 M Johnston
184 AU16GYMP0000517 10:54:15 Kahilipso Lofts
185 AU16NRC 0003642 10:54:15 P & P Emery
186 AU16QPF 0005018 10:54:16 Beech & Gibbs
187 AU16TCPC0001507 10:54:17 M Johnston
188 AU16LCPC0000757 10:54:18 Kent Yang
189 AU16GYMP0000834 10:54:19 Humpty Doo
190 AU16QPF 0008223 10:54:19 Beech & Gibbs
191 AU17SAMD0000093 10:54:20 Nigel Cofey
192 AU16NRC 0002235 10:54:21 Kehlet & Matthews
193 AU16SA 0017054 10:54:23 S Pradella & Watson
194 AU16TRPC0002416 10:54:24 Candioso
195 AU16MKY 0000888 10:54:25 Mackay Pigeons
196 AU16GYMP0000417 10:54:30 Lee Beattie
197 AU16GYMP0000406 10:54:37 Lee Beattie
198 AU16AUST0010517 10:54:41 Phoenix Lofts
199 AU16TRPC0002314 10:54:43 Cane View
200 AU16GYMP0000568 10:54:45 Bennett Syndicate
201 AU16ARM 0000506 10:54:45 Geoff Potts
202 AU16NRC 0002221 10:54:48 Rangeview Lofts
203 AU16MKY 0000439 10:54:49 Bad Boys Syndicate
204 AU16TWMB0001980 10:54:51 Kamara Lofts
205 AU16TWMB0001435 10:54:52 Peter Burton
206 AU16CAS 0000485 10:54:53 Casino Crew
207 AU16GYMP0000598 10:54:54 Bad Boys Syndicate
208 AU16NRC 0002222 10:54:55 Rangeview Lofts
209 AU16SAMD0000014 10:54:58 Sunswift Lofts
210 AU16GYMP0000585 10:54:59 Steve Beverly
211 AU16WPF 0006352 10:55:01 Pat & Jill Murphy
212 AU16MARY0001242 10:55:18 Wil Connally
213 AU16MKY 0000865 10:55:19 Forever Young Syndicate
214 AU16QPF 0008608 10:56:08 JCV Loft
215 AU16ANG 0000486 10:56:08 Colgate & Wortley
216 AU16GYMP0000652 10:56:09 Des Moore
217 AU16MARY0001696 10:56:12 Darnell & Minto
218 AU16NRC 0000835 10:56:15 Kieran Malone
219 AU16GYMP0000576 10:56:15 Barossa Bill
220 AU16MKY 0000127 10:56:16 Mackay Pigeons
221 AU16QPF 0008224 10:56:18 Beech & Gibbs
222 AU16NRC 0003657 10:56:18 Emery & Commons
223 AU16ROPC0001958 10:56:18 Mount Jackson Loft
224 AU16UNIP0000127 10:56:19 JPS Syndicate
225 AU16GYMP0000644 10:56:19 Pradella Pieds
226 AU16MKY 0000869 10:56:20 Forever Young Syndicate
227 AU16NRC 0003654 10:56:20 Emery & Commons
228 AU16QPF 0009052 10:56:21 Steve Beverly
228 AU16MKY 0000218 10:56:21 Russ Beetham
230 AU16GYMP0000663 10:56:22 Colin Dugmoore
231 AU16NRC 0002238 10:56:22 Rangeview Lofts
232 AU16TRPC0002319 10:56:22 Cane View
233 AU16MKY 0000915 10:56:23 Mackay Pigeons
234 AU16QPF 0008222 10:56:23 Beech & Gibbs
235 AU16BRPC0000591 10:56:23 Colin Dugmoore
236 AU16CAS 0000500 10:56:24 Casino Crew
237 AU16NRC 0003653 10:56:24 P & P Emery
238 AU16SAMD0000016 10:56:25 Sunswift Lofts
239 AU16UNIP0000130 10:56:26 JPS Syndicate
240 AU16LCPC0000826 10:56:27 Murrumba Syndicate
241 AU16QPF 0005681 10:56:27 Dave Tester
242 AU16STAR0000082 10:56:27 Starkoff Loft
242 AU16TCPC0001537 10:56:27 Johnsen & Johnston
244 AU16OLDB0000132 10:56:28 Millrose Loft
245 AU16GYMP0000943 10:56:28 Des Lovell
245 AU16MARY0000627 10:56:28 Darnell & Minto
247 AU16TWMB0001257 10:56:28 Bloomfield & Burton
248 AU16QPF 0005637 10:56:29 Dave Tester
249 AU16TCPC0001523 10:56:29 M Johnston
250 AU16MKY 0000479 10:56:29 Bad Boys Syndicate
251 AU16BRPC0000592 10:56:30 Colin Dugmoore
251 AU16GRPA0001498 10:56:30 Pat & Jill Murphy
253 AU16SC 0000850 10:56:30 VIP Lofts
254 AU16WPF 0005059 10:56:31 Kauta - Wallarie
255 AU16MARY0000630 10:56:31 Darnell & Minto
256 AU16COFF0000526 10:56:32 Born to Fly
257 AU16TCPC0001042 10:56:32 Geoff Hackett
258 AU16MKY 0000867 10:56:32 Forever Young Syndicate
259 AU16WPF 0005058 10:56:33 Kauta - Wallarie
259 AU16QPF 0001309 10:56:33 Kevin Miller
261 AU16TCPC0001531 10:56:33 M Johnston
262 AU16QPF 0008602 10:56:33 JCV Loft
263 AU16GYMP0000654 10:56:35 Rob Lindsay
264 AU16RIPA0000532 10:56:35 Ken Tucker
264 AU16LAKE0001624 10:56:35 VanJack Lofts
266 AU16TRPC0002323 10:56:36 Cane View
267 AU16NRC 0002219 10:56:37 Rangeview Lofts
268 AU16GYMP0000658 10:56:37 JPS Syndicate
269 AU16MARY0000859 10:56:38 Darnell & Minto
270 AU16GRPA0001331 10:56:38 Black Caviar Syndicate
271 AU16GYMP0000659 10:56:38 Lee Beattie
272 AU16ARM 0000530 10:56:38 Geoff Potts
273 AU16TCPC0000196 10:56:39 Geoff Hackett
274 AU16QPF 0009372 10:56:40 W & K Racing
275 AU16NRC 0002214 10:56:41 Kehlet & Matthews
276 AU16OLDB0000200 10:56:41 Millrose Loft
277 AU16SC 0000865 10:56:42 Egg & Bacon Syndicate
277 AU16QPF 0005182 10:56:42 Neelloc Syndicate
279 AU16MKY 0000216 10:56:42 Russ Beetham
279 AU16DALB0000341 10:56:42 Kahilipso Lofts
281 AU16TCPC0001325 10:56:42 Johnsen & Johnston
282 AU16CCF 0005110 10:56:43 Pol Weyton
283 AU16SA 0010330 10:56:43 Barossa Bill
284 AU16WPF 0005057 10:56:43 Alan Bowtell
285 AU16GRPA0001330 10:56:44 Black Caviar Syndicate
286 AU16QPF 0000597 10:56:44 Pat & Jill Murphy
287 AU16GLAD0000002 10:56:45 Pradella Pieds
288 AU16IRPC0000237 10:56:46 Andreas Flach
289 AU16QPF 0009888 10:56:46 Ramal Harch
290 AU16GYMP0000664 10:56:46 Colin Dugmoore
291 AU16BHPC0002374 10:56:47 Graham Temperly
291 AU16QPF 0007548 10:56:47 Coal Port Syndicate
291 AU16LMAC0000936 10:56:47 Laurie Dennis
294 AU16TWMB0001771 10:56:48 Alan Bowtell
295 AU16COFF0000541 10:56:49 Hilltop Hoods
295 AU16AUSN0003948 10:56:49 Rob Lindsay
297 AU16QPF 0003388 10:56:49 Dave Stanfield
298 AU16DALB0000365 10:56:49 Kahilipso Lofts
298 AU16LISM0003164 10:56:49 Loongana Lofts
300 AU16QPF 0010966 10:56:50 Kieran Malone
301 AU16GYMP0000603 10:56:50 M Johnston
302 AU16TWMB0001770 10:56:52 Alan Bowtell
303 AU16QPF 0007888 10:56:52 H & S Field
304 AU16QPF 0006556 10:56:53 Milton Mangoes
305 AU16TRPC0002339 10:56:53 Cane View
306 AU16AUST0001580 10:56:54 Basil George
307 AU16CAS 0000466 10:56:55 Casino Crew
308 AU16ROPC0001112 10:56:56 Candioso
309 AU17SAMD0000098 10:56:56 Nigel Cofey
310 AU16LMAC0001034 10:56:57 Laurie Dennis
311 AU16LMAC 1036 10:56:58 Laurie Dennis
312 AU16GYMP0000636 10:56:59 Wayne Hamilton
313 AU16QPF 0003387 10:57:01 Dave Stanfield
314 AU16GYMP0000678 10:57:04 Rangeview Lofts
315 AU16NRC 0001451 10:57:04 Delores & Gordon Oswald
316 AU16GYMP0000655 10:57:05 Colin Dugmoore
317 AU16GYMP0000588 10:57:05 Johnsen & Johnston
318 AU16TRPC0002884 10:57:06 Gary Harvey
319 AU16STAR0000075 10:57:06 Starkoff Loft
320 AU16ROPC0001118 10:57:08 Candioso
321 AU16LAKE0001617 10:57:10 VanJack Lofts
322 AU16DMAR0000007 10:57:12 Des Moore
322 AU16GRPA0001496 10:57:12 Pat & Jill Murphy
324 AU16AUST0001806 10:57:14 Karma Syndicate
325 AU16QPF 0008084 10:57:15 Ramal Harch
326 AU16GYMP0000688 10:57:16 Commons & Treanor
327 AU16GYMP0000668 10:57:16 Back of Burke Syndicate
328 AU16NRC 0002892 10:57:41 Emery & Commons
329 AU17SAMD0000092 10:57:43 Bloomfield & Burton
330 AU16TWMB0001556 10:57:47 Toowoomba Racing Pigeon Club
331 AU16BHPC0000376 10:57:47 Bundy Snow Syndicate
332 AU16TRPC0000533 10:57:51 Ian Harvey Family
333 AU16NRC 0002213 10:57:53 Kehlet & Matthews
334 AU16WPF 0005055 10:57:55 Kauta - Wallarie
335 AU16SC 0001313 10:57:55 Forever Young Syndicate
336 AU16GRPA0001425 10:58:02 Black Caviar Syndicate
337 AU16AUSN0003949 10:58:06 Kiwi Reg
338 AU16QPF 0003384 10:58:12 Dave Stanfield
339 AU16STAR0000070 10:58:14 Starkoff Loft
340 AU16GRPA0000557 10:58:20 Chris Butler
341 AU16AUST0000111 10:58:24 Errol McGrady
342 AU16QPF 0010974 10:58:50 J & K Syndicate
343 AU16TWMB0001253 11:03:51 Bloomfield & Burton
344 AU16SC 0000834 11:03:52 VIP Lofts
345 AU16TCPC0001310 11:03:52 Johnsen & Johnston
346 AU16GYMP0000660 11:03:54 Ted Lewis
347 AU16GYMP0000642 11:03:54 Mackay Pigeons
348 AU16ANG 0000487 11:03:55 Colgate & Wortley
349 AU16GYMP0000608 11:03:55 Shane Q
350 AU16AUSN0003964 11:03:56 Kiwi Reg
351 AU16LMAC0001058 11:03:58 Laurie Dennis
352 AU16IRPC0000277 11:04:00 Team Outback
353 AU16GYMP0000640 11:04:03 Ken Tucker
353 AU16IRPC0000184 11:04:03 Tony Garnett
355 AU16BHPC0000312 11:04:04 Bundy Snow Syndicate
356 AU16GYMP0000690 11:04:05 Loft Spare
356 AU16CAS 0000303 11:04:05 Karma Syndicate
358 AU16ARM 0000512 11:04:07 Geoff Potts
359 AU16GYMP0000681 11:04:15 Mackay Pigeons
360 AU16GC 0000774 11:04:17 Commons & Treanor
361 AU16COFF0000521 11:18:37 Born to Fly
362 AU16RIPA0000560 11:46:05 Ken Tucker
363 AU16GYMP0000682 11:46:41 Kevin Miller
364 AU16MOON0000027 11:56:13 Robin White
365 AU16ARM 0000502 11:56:24 Geoff Potts
366 AU16GLAD0000014 11:56:32 Pradella Pieds
367 AU16ROPC0001950 12:02:00 Mount Jackson Loft
368 AU16GYMP0000648 12:02:03 Bloomfield & Burton
369 AU16TWMB0001166 12:02:07 Wayne Hamilton
370 AU16GYMP0000662 12:02:37 Colin Dugmoore
371 AU16BALB0000075 12:14:02 East & Winkler
372 AU16QPF 0006560 12:41:14 Milton Mangoes
373 AU16AUB 0001170 13:21:22 Shane Q
374 AU16ANG 0000489 13:21:26 Colgate & Wortley
375 AU16IRPC0000270 13:33:11 Team Outback
376 AU16TWMB0001977 13:55:08 Kamara Lofts
377 AU16GYMP0000555 13:56:27 Robin White
378 AU16QPF 0000593 13:56:31 Pat & Jill Murphy
379 AU16MKY 0000649 13:57:44 Mackay Pigeons
380 AU16TWMB0001236 15:13:41 Bloomfield & Burton
381 AU16SC 0000863 15:13:43 WA Virals
382 AU16MARY0000871 16:32:12 Darnell & Minto

Training Toss 1

The birds had their first serious training toss today from Wallu which is 30 km to the loft. The birds were liberated at 10:00am with the first bird arriving at 10:41:54am followed shortly after by a couple more,  with the main bunch arriving around 4 minutes later and a few stragglers throughout  the day.

Pos Ringnumber Arrival Time OWNER
1 AU16QPF 0010929 10:41:54 J & K Syndicate
2 AU16LCPC0000761 10:42:13 Kent Yang
3 AU16COFF0000540 10:43:06 Hilltop Hoods
4 AU16SC 0000880 10:43:06 Egg & Bacon Syndicate
5 AU16MARY0000627 10:43:08 Darnell & Minto
6 AU16NRC 0003642 10:43:17 P & P Emery
7 AU16SAMD0000014 10:43:21 Sunswift Lofts
8 AU16LMAC 1036 10:43:25 Laurie Dennis
9 AU16TCPC0001507 10:43:55 M Johnston
10 AU16QPF 0007551 10:45:13 Coal Port Syndicate
11 AU16GRPA0001353 10:45:13 Black Caviar Syndicate
12 AU16MARY0000871 10:45:13 Darnell & Minto
13 AU16SA 0017060 10:45:14 S Pradella & Watson
13 AU16QPF 0010964 10:45:14 Kieran Malone
15 AU16QPF 0000593 10:45:14 Pat & Jill Murphy
16 AU16NRC 0003963 10:45:15 C & B Matthews
17 AU16AUST0010517 10:45:15 Phoenix Lofts
18 AU17SAMD0000093 10:45:16 Nigel Cofey
19 AU16QPF 0005180 10:45:18 Neelloc Syndicate
20 AU16CCF 0005098 10:45:18 Pol Weyton
21 AU16RIPA0000763 10:45:19 Ted Hussie
22 AU16SC 0000059 10:45:20 VIP Lofts
23 AU16SC 0017059 10:45:21 S Pradella & Watson
24 AU16MKY 0000221 10:45:22 Russ Beetham
24 AU16QPF 0009888 10:45:22 Ramal Harch
24 AU16STAR0000055 10:45:22 Starkoff Loft
27 AU16BALB0000320 10:45:23 Winky Pop Syndicate
28 AU16MKY 0000127 10:45:23 Mackay Pigeons
28 AU16QPF 0008224 10:45:23 Beech & Gibbs
30 AU16IRPC0000189 10:45:24 Tony Garnett
31 AU16AUSN0003964 10:45:24 Kiwi Reg
32 AU16TWMB0000096 10:45:25 Kauta - Wallarie
33 AU16MARY0000873 10:45:25 Darnell & Minto
34 AU16GYMP0000603 10:45:26 M Johnston
35 AU16NRC 0000835 10:45:28 Kieran Malone
36 AU16SC 0000864 10:45:29 VIP Lofts
37 AU16MKY 0000463 10:45:29 Ted Lewis
38 AU16MARY0000855 10:45:30 Darnell & Minto
39 AU16COFF0000526 10:45:30 Born to Fly
40 AU16GRPA0001330 10:45:31 Black Caviar Syndicate
41 AU16MKY 0000915 10:45:32 Mackay Pigeons
42 AU16IRPC0000184 10:45:32 Tony Garnett
43 AU16LCPC0000760 10:45:32 Kent Yang
44 AU16AUST0000111 10:45:33 Errol McGrady
45 AU16GLAP0000014 10:45:33 Pradella Pieds
46 AU16GRPA0001498 10:45:33 Pat & Jill Murphy
47 AU16LMAC0001062 10:45:33 Laurie Dennis
48 AU16MKY 0000649 10:45:33 Mackay Pigeons
49 AU16GRPA0001473 10:45:34 Pat & Jill Murphy
50 AU16COFF0000525 10:45:34 Born to Fly
51 AU16QPF 0005018 10:45:35 Beech & Gibbs
52 AU16AUST0001803 10:45:35 Karma Syndicate
52 AU16NRC 0001445 10:45:35 Delores & Gordon Oswald
54 AU16TWMB0001980 10:45:36 Kamara Lofts
55 AU16SC 0000881 10:45:36 WA Virals
56 AU16LAKE0001624 10:45:37 VanJack Lofts
57 AU16MARY0001245 10:45:37 Wil Connally
58 AU16QPF 0008218 10:45:38 Beech & Gibbs
59 AU16TWMB0001247 10:45:40 Bloomfield & Burton
60 AU16MARY0000867 10:45:40 Darnell & Minto
61 AU16RIPA0000772 10:45:41 Peter & Ted
62 AU16LMAC0001058 10:45:41 Laurie Dennis
63 AU16QPF 0009049 10:45:43 Steve Beverly
64 AU16LMAC0002015 10:45:44 Rodney Howe
65 AU16AUST0001801 10:45:44 Karma Syndicate
65 AU16TWMB0001773 10:45:44 Alan Bowtell
67 AU16GRPA0001411 10:45:44 Pat & Jill Murphy
68 AU16LMAC0001055 10:45:46 Laurie Dennis
69 AU16GYMP0000568 10:45:47 Bennett Syndicate
70 AU16GYMP0000681 10:45:55 Mackay Pigeons
71 AU16IRPC0000271 10:46:05 Team Outback
72 AU16ANG 0000487 10:46:05 Colgate & Wortley
73 AU16GRPA0000557 10:46:05 Chris Butler
74 AU16QPF 0010968 10:46:06 J & K Syndicate
75 AU16QPF 0009372 10:46:07 W & K Racing
76 AU16CAS 0000607 10:46:07 Casino Crew
77 AU16TWMB0001253 10:46:08 Bloomfield & Burton
78 AU16LCPC0000768 10:46:08 Kent Yang
79 AU16LMAC0002003 10:46:11 Rodney Howe
80 AU16MKY 0000888 10:46:11 Mackay Pigeons
81 AU16SC 0000878 10:46:11 Riley-P Syndicate
82 AU16GRPA0001422 10:46:12 Black Caviar Syndicate
82 AU16SAMD0000016 10:46:12 Sunswift Lofts
84 AU16UNIP0000127 10:46:13 JPS Syndicate
85 AU16GYMP0000417 10:46:13 Lee Beattie
86 AU16GYMP0000690 10:46:13 Loft Spare
86 AU16SAMD0000017 10:46:13 Sunswift Lofts
88 AU16MOON0000027 10:46:14 Robin White
89 AU16OLDB0000200 10:46:14 Millrose Loft
89 AU16GYMP0000660 10:46:14 Ted Lewis
91 AU16GYMP0000572 10:46:14 Geoff Potts
92 AU16UNIP0000130 10:46:15 JPS Syndicate
93 AU16MOON0000028 10:46:15 Robin White
93 AU16TWMB0001257 10:46:15 Bloomfield & Burton
95 AU16BALB0000076 10:46:16 East & Winkler
95 AU16GYMP0000835 10:46:16 Humpty Doo
96 AU16MARY0001696 10:46:16 Darnell & Minto
97 AU16RIPA0000759 10:46:16 Ted Hussie
98 AU16SC 0000850 10:46:17 VIP Lofts
99 AU16TWMB0001771 10:46:17 Alan Bowtell
100 AU16GYMP0000643 10:46:17 Beech & Gibbs
100 AU16SC 0000882 10:46:17 Egg & Bacon Syndicate
102 AU16TWMB0001236 10:46:17 Bloomfield & Burton
103 AU16LISM0003164 10:46:18 Loongana Lofts
104 AU16SA 0019853 10:46:18 S Pradella & Watson
105 AU16SC 0000053 10:46:18 Riley-P Syndicate
105 AU16SC 0000837 10:46:18 WA Virals
107 AU16LCPC0000762 10:46:19 Kent Yang
107 AU16GYMP0000682 10:46:19 Kevin Miller
109 AU16GYMP0000648 10:46:19 Bloomfield & Burton
110 AU16BHPC0002387 10:46:19 Graham Temperly
111 AU16MKY 0000440 10:46:20 Mackay Pigeons
112 AU16SA 0010330 10:46:20 Barossa Bill
113 AU16TRPC0002339 10:46:20 Cane View
114 AU16GYMP0000663 10:46:21 Colin Dugmoore
115 AU16TCPC0001501 10:46:21 M Johnston
116 AU16ARM 0000304 10:46:21 Greg Page
116 AU16ROPC0001950 10:46:21 Mount Jackson Loft
118 AU16GLAP0000015 10:46:22 Pradella Pieds
119 AU16GLAD0000005 10:46:22 Pradella Pieds
119 AU16AUST0010530 10:46:22 Phoenix Lofts
121 AU16GRPA0001427 10:46:23 Pat & Jill Murphy
122 AU16MKY 0000870 10:46:23 Mike Young
123 AU16NRC 0003654 10:46:23 Emery & Commons
124 AU16ARM 0000530 10:46:24 Geoff Potts
125 AU16NRC 0002238 10:46:24 Rangeview Lofts
126 AU16WPF 0005059 10:46:25 Kauta - Wallarie
126 AU16TRPC0002319 10:46:25 Cane View
128 AU16QPF 0005182 10:46:25 Neelloc Syndicate
129 AU16LMAC0001034 10:46:25 Laurie Dennis
130 AU16GYMP0000688 10:46:26 Commons & Treanor
130 AU16MKY 0000207 10:46:26 Russ Beetham
132 AU16GYMP0000585 10:46:26 Steve Beverly
132 AU16TCPC0001537 10:46:26 Johnsen & Johnston
134 AU16NRC 0003993 10:46:27 C & B Matthews
135 AU16AUB 0001156 10:46:27 Shane Q
135 AU16GRPA0001419 10:46:27 Pat & Jill Murphy
135 AU16CAS 0000500 10:46:27 Casino Crew
138 AU16MKY 0000869 10:46:27 Forever Young Syndicate
139 AU16STAR0000085 10:46:28 Starkoff Loft
140 AU16AUSN0003950 10:46:28 Rob Lindsay
140 AU16TWMB0000097 10:46:28 Kauta - Wallarie
142 AU16TRPC0002419 10:46:29 Candioso
142 AU16CAS 0000314 10:46:29 Karma Syndicate
142 AU16GYMP0000588 10:46:29 Johnsen & Johnston
145 AU16CAS 0000466 10:46:29 Casino Crew
146 AU16QPF 0010966 10:46:30 Kieran Malone
146 AU16AUST0010515 10:46:30 Phoenix Lofts
148 AU16COFF0000524 10:46:30 Born to Fly
149 AU16GYMP0000580 10:46:31 Sunswift Lofts
149 AU16ROPC0001958 10:46:31 Mount Jackson Loft
151 AU16COFF0000547 10:46:31 Painters & Plumbers
152 AU17SAMD0000097 10:46:32 Pradella Pieds
153 AU16LCPC0000757 10:46:32 Kent Yang
154 AU16RIPA0000532 10:46:32 Ken Tucker
154 AU16QPF 0005637 10:46:32 Dave Tester
155 AU16RIPA0000531 10:46:32 Ken Tucker
156 AU16DALB0000341 10:46:33 Kahilipso Lofts
156 AU16QPF 0005070 10:46:33 Beech & Gibbs
158 AU16QPF 0007548 10:46:33 Coal Port Syndicate
159 AU16TCPC0001330 10:46:34 Johnsen & Johnston
159 AU16SC 0000079 10:46:34 Egg & Bacon Syndicate
161 AU16GYMP0000555 10:46:34 Robin White
162 AU16AUST0010513 10:46:34 Phoenix Lofts
162 AU16OLDB0000130 10:46:34 Millrose Loft
162 AU16QPF 0001309 10:46:34 Kevin Miller
165 AU16SC 0000834 10:46:35 VIP Lofts
166 AU16MKY 0000439 10:46:35 Bad Boys Syndicate
167 AU16GRPA0001406 10:46:35 Black Caviar Syndicate
167 AU16WPF 0005058 10:46:35 Kauta - Wallarie
169 AU16TRPC0002349 10:46:35 Cane View
170 AU16GYMP0000406 10:46:36 Lee Beattie
170 AU17SAMD0000095 10:46:36 Nigel Cofey
170 AU16ROPC0001938 10:46:36 Mount Jackson Loft
173 AU16GYMP0000644 10:46:37 Pradella Pieds
174 AU16LCPC0000826 10:46:37 Murrumba Syndicate
174 AU16NRC 0002234 10:46:37 Rangeview Lofts
176 AU16UNIP0000138 10:46:37 JPS Syndicate
177 AU16QPF 0010992 10:46:37 J & K Syndicate
177 AU16DALB0000355 10:46:37 Kahilipso Lofts
179 AU16ARM 0000512 10:46:38 Geoff Potts
180 AU16AUST0010531 10:46:38 Phoenix Lofts
181 AU16BRPC0000592 10:46:38 Colin Dugmoore
181 AU16NRC 0002222 10:46:38 Rangeview Lofts
183 AU16ANG 0000489 10:46:38 Colgate & Wortley
184 AU16GYMP0000642 10:46:39 Mackay Pigeons
184 AU16QPF 0007555 10:46:39 Coal Port Syndicate
186 AU16TRPC0002416 10:46:39 Candioso
187 AU16GYMP0000687 10:46:39 Milton Mangoes
187 AU16GYMP0000654 10:46:39 Rob Lindsay
189 AU16GYMP0000655 10:46:39 Colin Dugmoore
190 AU16TWMB0001235 10:46:40 Bloomfield & Burton
191 AU16TCPC0000196 10:46:41 Geoff Hackett
191 AU16DALB0000365 10:46:41 Kahilipso Lofts
191 AU16GYMP0000661 10:46:41 Des Moore
194 AU16SAMD0000011 10:46:41 Sunswift Lofts
195 AU16RIPA0000768 10:46:41 Peter & Ted
196 AU16GRPA0001401 10:46:42 Pat & Jill Murphy
196 AU16TRPC0002314 10:46:42 Cane View
196 AU16BRPC0000591 10:46:42 Colin Dugmoore
199 AU16MKY 0000218 10:46:42 Russ Beetham
200 AU16AUSN0003949 10:46:42 Kiwi Reg
200 AU16MARY0000630 10:46:42 Darnell & Minto
202 AU16QPF 0008084 10:46:43 Ramal Harch
203 AU16NRC 0002218 10:46:43 Rangeview Lofts
204 AU16CCF 0005110 10:46:43 Pol Weyton
205 AU16MARY0001242 10:46:44 Wil Connally
206 AU16STAR0000075 10:46:44 Starkoff Loft
207 AU16GYMP0000662 10:46:44 Colin Dugmoore
207 AU16NRC 0002235 10:46:44 Kehlet & Matthews
209 AU16LAKE0001621 10:46:45 VanJack Lofts
210 AU16GYMP0000834 10:46:45 Humpty Doo
210 AU16GYMP0000639 10:46:45 Laurie Dennis
212 AU16TRPC0002323 10:46:46 Cane View
212 AU16SC 0000865 10:46:46 Egg & Bacon Syndicate
212 AU16GYMP0000576 10:46:46 Barossa Bill
215 AU16AUST0010512 10:46:46 Phoenix Lofts
215 AU16QPF 0006560 10:46:46 Milton Mangoes
217 AU16CCF 0005102 10:46:46 Pol Weyton
217 AU16ARM 0000502 10:46:46 Geoff Potts
219 AU16STAR0000072 10:46:47 Starkoff Loft
220 AU16QPF 0003388 10:46:47 Dave Stanfield
220 AU16GYMP0000527 10:46:47 Laurie Dennis
222 AU16QPF 0006556 10:46:48 Milton Mangoes
222 AU16AUSN0003948 10:46:48 Rob Lindsay
224 AU16IRPC0000188 10:46:48 Tony Garnett
224 AU16IRPC0000237 10:46:48 Andreas Flach
226 AU16TCPC0001523 10:46:49 M Johnston
227 AU16GRPA0001448 10:46:49 Pat & Jill Murphy
228 AU16GYMP0000652 10:46:49 Des Moore
228 AU16NRC 0002214 10:46:49 Kehlet & Matthews
230 AU16QPF 0000597 10:46:50 Pat & Jill Murphy
231 AU16SA 0017055 10:46:50 S Pradella & Watson
232 AU16GRPA0001331 10:46:50 Black Caviar Syndicate
233 AU16GLAD0000013 10:46:50 Pradella Pieds
234 AU16WPF 0005055 10:46:51 Kauta - Wallarie
235 AU16GYMP0000943 10:46:51 Des Lovell
236 AU16IRPC0000279 10:46:52 Team Outback
237 AU16GYMP0000570 10:46:52 Pat & Jill Murphy
237 AU16COFF0000263 10:46:52 John Payne
239 AU16TCPC0001325 10:46:53 Johnsen & Johnston
239 AU16MKY 0000867 10:46:53 Forever Young Syndicate
241 AU16GYMP0000565 10:46:53 Ken Tucker
242 AU16NRC 0002860 10:46:53 P & P Emery
243 AU16TWMB0001556 10:46:54 Toowoomba Racing Pigeon Club
244 AU16SC 0000836 10:46:54 WA Virals
244 AU16TRPC0000533 10:46:54 Ian Harvey Family
246 AU16GYMP0000567 10:46:55 M Johnston
247 AU16RIPA0000560 10:46:55 Ken Tucker
248 AU16ROPC0001112 10:46:55 Candioso
249 AU16MKY 0000479 10:46:55 Bad Boys Syndicate
250 AU17SAMD0000092 10:46:56 Bloomfield & Burton
251 AU16NRC 0002221 10:46:56 Rangeview Lofts
251 AU16STAR0000082 10:46:56 Starkoff Loft
253 AU16LMAC0001030 10:46:57 Laurie Dennis
253 AU16ROPC0001936 10:46:57 Mount Jackson Loft
255 AU16GYMP0000673 10:46:57 Bloomfield & Burton
255 AU16MARY0000859 10:46:57 Darnell & Minto
257 AU17SAMD0000098 10:46:58 Nigel Cofey
258 AU16QPF 0010970 10:46:58 J & K Syndicate
258 AU16ARM 0000312 10:46:58 Greg Page
260 AU16OLDB0000133 10:46:58 Millrose Loft
261 AU16NRC 0002219 10:46:59 Rangeview Lofts
261 AU16MKY 0000216 10:46:59 Russ Beetham
263 AU16SC 0000835 10:46:59 Egg & Bacon Syndicate
264 AU16GYMP0000608 10:46:59 Shane Q
265 AU16WPF 0005045 10:46:59 Kauta - Wallarie
266 AU16AUST0001580 10:46:59 Basil George
267 AU16TCPC0001092 10:47:00 Geoff Hackett
268 AU16SA 0006274 10:47:00 Pradella Pieds
269 AU16GYMP0000526 10:47:01 Mackay Pigeons
270 AU16BHPC0000376 10:47:01 Bundy Snow Syndicate
271 AU16TRPC0002883 10:47:02 Gary Harvey
272 AU16WPF 0005057 10:47:02 Alan Bowtell
273 AU16AUST0001806 10:47:02 Karma Syndicate
274 AU16NRC 0001451 10:47:02 Delores & Gordon Oswald
275 AU16TWMB0001985 10:47:03 Kamara Lofts
275 AU16STAR0000045 10:47:03 Starkoff Loft
277 AU16WTB 0000715 10:47:03 Loongana Lofts
278 AU16MARY0001253 10:47:04 Wil Connally
279 AU16QPF 0008602 10:47:04 JCV Loft
280 AU16QPF 10955 10:47:04 J & K Syndicate
281 AU16QPF 0007554 10:47:05 Coal Port Syndicate
282 AU16GYMP0000658 10:47:05 JPS Syndicate
282 AU16QPF 0006149 10:47:05 Milton Mangoes
284 AU16GLAD0000015 10:47:05 Pradella Pieds
285 AU16TWMB0001862 10:47:06 Black Caviar Syndicate
286 AU16GYMP0000647 10:47:06 Toowoomba Racing Pigeon Club
287 AU16TRPC0002884 10:47:06 Gary Harvey
287 AU16GYMP0000636 10:47:06 Wayne Hamilton
289 AU16IRPC0000187 10:47:07 Tony Garnett
289 AU16GLAD0000002 10:47:07 Pradella Pieds
289 AU16GYMP0000668 10:47:07 Back of Burke Syndicate
292 AU16NRC 0002213 10:47:07 Kehlet & Matthews
293 AU16GRPA0001446 10:47:07 Pat & Jill Murphy
294 AU16QPF 0008608 10:47:08 JCV Loft
295 AU16BHPC0000312 10:47:08 Bundy Snow Syndicate
296 AU16AUST0001589 10:47:08 Basil George
297 AU16AUST0010534 10:47:08 Phoenix Lofts
298 AU16SA 0017054 10:47:09 S Pradella & Watson
299 AU16DMAR0000007 10:47:09 Des Moore
300 AU16SC 0000863 10:47:10 WA Virals
300 AU16GYMP0000646 10:47:10 Steve Beverly
303 AU16ANG 0000486 10:47:11 Colgate & Wortley
303 AU16GYMP0000571 10:47:11 Egg & Bacon Syndicate
304 AU16LMAC0001044 10:47:12 Laurie Dennis
305 AU16WPF 0006352 10:47:13 Pat & Jill Murphy
306 AU16TCPC0001505 10:47:13 M Johnston
307 AU16MKY 0000865 10:47:13 Forever Young Syndicate
308 AU16SUNC0000014 10:47:14 Bill Groth
308 AU16GYMP0000517 10:47:14 Kahilipso Lofts
310 AU16ARM 0000322 10:47:14 Greg Page
310 AU16IRPC0000195 10:47:14 Tony Garnett
312 AU16QPF 0007888 10:47:15 H & S Field
313 AU16QPF 0005681 10:47:16 Dave Tester
314 AU16TWMB0001435 10:47:17 Peter Burton
314 AU16LCPC0000808 10:47:18 Murrumba Syndicate
316 AU16AUB 0001170 10:47:18 Shane Q
317 AU16WPF 0005056 10:47:19 Alan Bowtell
318 AU16QPF 0008222 10:47:19 Beech & Gibbs
319 AU16TWMB0001856 10:47:20 Black Caviar Syndicate
320 AU16LMAC0002017 10:47:21 Rodney Howe
321 AU16CAS 0000304 10:47:21 Karma Syndicate
322 AU16SUNC0000016 10:47:21 Bill Groth
322 AU16MARY0001246 10:47:21 Wil Connally
324 AU16QPF 0003387 10:47:22 Dave Stanfield
325 AU16GC 0000756 10:47:22 Commons & Treanor
326 AU16GYMP0000640 10:47:23 Ken Tucker
327 AU16SC 0001313 10:47:24 Forever Young Syndicate
328 AU16GRPA0001425 10:47:26 Black Caviar Syndicate
329 AU16QPF 0000599 10:47:26 Pat & Jill Murphy
330 AU16TWMB0001770 10:47:28 Alan Bowtell
331 AU16ARM 0000508 10:47:28 Geoff Potts
332 AU16COFF0000521 10:47:33 Born to Fly
333 AU16GC 0000774 10:47:37 Commons & Treanor
334 AU16QPF 0008223 10:47:37 Beech & Gibbs
335 AU16OLDB0000146 10:47:46 Millrose Loft
336 AU16STAR0000048 10:47:48 Starkoff Loft
337 AU16NRC 0003657 10:47:49 Emery & Commons
338 AU16GYMP0000656 10:47:57 Loft Spare
339 AU16ARM 0000506 10:48:28 Geoff Potts
340 AU16TWMB0001977 10:48:28 Kamara Lofts
341 AU16LAKE0001626 10:48:28 VanJack Lofts
342 AU16AUSN0003972 10:48:29 Rob Lindsay
343 AU16STAR0000070 10:48:31 Starkoff Loft
344 AU16TWMB0001166 10:48:55 Wayne Hamilton
345 AU16AUB 0001174 10:52:38 Shane Q
346 AU16TCPC0001531 10:52:44 M Johnston
347 AU16ROPC0001118 10:52:44 Candioso
348 AU16GYMP0000932 10:52:44 Des Lovell
349 AU16TWMB0000435 10:52:45 Toowoomba Racing Pigeon Club
350 AU16TWMB0001255 10:52:45 Bloomfield & Burton
351 AU16MARY0000865 10:52:46 Darnell & Minto
352 AU16QPF 0009052 10:52:46 Steve Beverly
353 AU16BHPC0002373 10:52:47 Graham Temperly
354 AU16GYMP0000838 10:52:48 Humpty Doo
355 AU16NRC 0003653 10:52:48 P & P Emery
356 AU16QPF 0003384 10:52:48 Dave Stanfield
357 AU16AUST0001573 10:52:49 Basil George
358 AU16STAR0000073 10:52:49 Starkoff Loft
359 AU16TCPC0001042 10:52:50 Geoff Hackett
360 AU16GYMP0000678 10:52:50 Rangeview Lofts
361 AU16WAR 0006844 10:52:51 Back of Burke Syndicate
362 AU16BHPC0002374 10:52:52 Graham Temperly
363 AU16LAKE0001617 10:52:52 VanJack Lofts
364 AU16GYMP0000664 10:52:53 Colin Dugmoore
365 AU16NRC 0002899 10:52:53 Emery & Commons
366 AU16CAS 0000485 10:52:55 Casino Crew
367 AU16LMAC0000936 10:52:56 Laurie Dennis
368 AU16GYMP0000573 10:52:57 Pol Weyton
369 AU16NRC 0002892 10:52:58 Emery & Commons
370 AU16GRPA0001496 10:53:00 Pat & Jill Murphy
371 AU16MARY0001250 10:53:01 Wil Connally
372 AU16NRC 0003639 10:53:02 P & P Emery
373 AU16QPF 0010974 10:53:06 J & K Syndicate
374 AU16MKY 0000220 11:09:05 Mackay Pigeons
375 AU16GYMP0000598 11:25:17 Bad Boys Syndicate
376 AU16CAS 0000303 11:31:16 Karma Syndicate
377 AU16GLAD0000008 11:33:50 Pradella Pieds
378 AU16GLAD0000014 11:33:51 Pradella Pieds
379 AU16TWMB0001858 11:33:53 Black Caviar Syndicate
380 AU16IRPC0000277 11:45:21 Team Outback
381 AU16QPF 0010983 12:11:01 J & K Syndicate
382 AU16GYMP0000659 12:27:14 Lee Beattie
383 AU16COFF0000541 12:27:21 Hilltop Hoods
384 AU16RIPA0000760 12:27:38 Peter & Ted
385 AU16LAKE0001616 12:27:42 VanJack Lofts
386 AU16IRPC0000270 12:46:41 Team Outback
387 AU16BALB0000075 13:02:04 East & Winkler
388 AU16QPF 0008605 14:49:25 JCV Loft
389 AU16TCPC0001310 16:06:02 Johnsen & Johnston

LOFT AUDIT 2

Hi all please see current list of birds which remain in the loft as of today 02/07/2017

Yours in sport

Qld 10000 team

Ringnumber OWNER
AU16TWMB0001773 Alan Bowtell
AU16WPF 0005056 Alan Bowtell
AU16WPF 0005057 Alan Bowtell
AU16TWMB0001771 Alan Bowtell
AU16TWMB0001770 Alan Bowtell
AU16IRPC0000237 Andreas Flach
AU16WAR 0006844 Back of Burke Syndicate
AU16GYMP0000668 Back of Burke Syndicate
AU16GYMP0000598 Bad Boys Syndicate
AU16MKY 0000479 Bad Boys Syndicate
AU16MKY 0000439 Bad Boys Syndicate
AU16GYMP0000576 Barossa Bill
AU16SA 0010330 Barossa Bill
AU16AUST0001589 Basil George
AU16AUST0001580 Basil George
AU16AUST0001573 Basil George
AU16QPF 0008222 Beech & Gibbs
AU16QPF 0005070 Beech & Gibbs
AU16QPF 0008223 Beech & Gibbs
AU16QPF 0008224 Beech & Gibbs
AU16QPF 0008218 Beech & Gibbs
AU16QPF 0005018 Beech & Gibbs
AU16GYMP0000643 Beech & Gibbs
AU16GYMP0000568 Bennett Syndicate
AU16SUNC0000016 Bill Groth
AU16SUNC0000014 Bill Groth
AU16GRPA0001425 Black Caviar Syndicate
AU16TWMB0001856 Black Caviar Syndicate
AU16GRPA0001330 Black Caviar Syndicate
AU16GRPA0001406 Black Caviar Syndicate
AU16TWMB0001862 Black Caviar Syndicate
AU16GRPA0001331 Black Caviar Syndicate
AU16TWMB0001858 Black Caviar Syndicate
AU16GRPA0001422 Black Caviar Syndicate
AU16GRPA0001353 Black Caviar Syndicate
AU16GYMP0000673 Bloomfield & Burton
AU16TWMB0001253 Bloomfield & Burton
AU16GYMP0000648 Bloomfield & Burton
AU16TWMB0001257 Bloomfield & Burton
AU16TWMB0001255 Bloomfield & Burton
AU17SAMD0000092 Bloomfield & Burton
AU16TWMB0001236 Bloomfield & Burton
AU16TWMB0001235 Bloomfield & Burton
AU16TWMB0001247 Bloomfield & Burton
AU16COFF0000521 Born to Fly
AU16COFF0000524 Born to Fly
AU16COFF0000526 Born to Fly
AU16COFF0000525 Born to Fly
AU16BHPC0000337 Bundy Snow Syndicate
AU16BHPC0000335 Bundy Snow Syndicate
AU16BHPC0000376 Bundy Snow Syndicate
AU16BHPC0000312 Bundy Snow Syndicate
AU16NRC 0003963 C & B Matthews
AU16NRC 0003993 C & B Matthews
AU16TRPC0002416 Candioso
AU16ROPC0001118 Candioso
AU16ROPC0001112 Candioso
AU16TRPC0002419 Candioso
AU16TRPC0002323 Cane View
AU16TRPC0002314 Cane View
AU16TRPC0002319 Cane View
AU16TRPC0002349 Cane View
AU16TRPC0002339 Cane View
AU16CAS 0000500 Casino Crew
AU16CAS 0000607 Casino Crew
AU16CAS 0000485 Casino Crew
AU16CAS 0000466 Casino Crew
AU16GRPA0000557 Chris Butler
AU16QPF 0007550 Coal Port Syndicate
AU16QPF 0007551 Coal Port Syndicate
AU16QPF 0007555 Coal Port Syndicate
AU16QPF 0007548 Coal Port Syndicate
AU16QPF 0007554 Coal Port Syndicate
AU16ANG 0000489 Colgate & Wortley
AU16ANG 0000487 Colgate & Wortley
AU16ANG10000484 Colgate & Wortley
AU16ANG 0000486 Colgate & Wortley
AU16BRPC0000591 Colin Dugmoore
AU16BRPC0000592 Colin Dugmoore
AU16GYMP0000664 Colin Dugmoore
AU16GYMP0000655 Colin Dugmoore
AU16GYMP0000663 Colin Dugmoore
AU16GYMP0000662 Colin Dugmoore
AU16GC 0000774 Commons & Treanor
AU16GYMP0000688 Commons & Treanor
AU16GC 0000756 Commons & Treanor
AU16MARY0000867 Darnell & Minto
AU16MARY0000855 Darnell & Minto
AU16MARY0000873 Darnell & Minto
AU16MARY0000630 Darnell & Minto
AU16MARY0000863 Darnell & Minto
AU16MARY0000627 Darnell & Minto
AU16MARY0000859 Darnell & Minto
AU16MARY0000865 Darnell & Minto
AU16MARY0000871 Darnell & Minto
AU16MARY0001696 Darnell & Minto
AU16QPF 0003388 Dave Stanfield
AU16QPF 0003384 Dave Stanfield
AU16QPF 0003387 Dave Stanfield
AU16QPF 0005637 Dave Tester
AU16QPF 0005681 Dave Tester
AU16NRC 0001445 Delores & Gordon Oswald
AU16NRC 0001451 Delores & Gordon Oswald
AU16GYMP0000943 Des Lovell
AU16GYMP0000932 Des Lovell
AU16GYMP0000661 Des Moore
AU16GYMP0000652 Des Moore
AU16DMAR0000007 Des Moore
AU16BALB0000075 East & Winkler
AU16BALB0000076 East & Winkler
AU16GYMP0000571 Egg & Bacon Syndicate
AU16SC 0000865 Egg & Bacon Syndicate
AU16SC 0000835 Egg & Bacon Syndicate
AU16SC 0000880 Egg & Bacon Syndicate
AU16SC 0000079 Egg & Bacon Syndicate
AU16SC 0000882 Egg & Bacon Syndicate
AU16NRC 0003654 Emery & Commons
AU16NRC 0002892 Emery & Commons
AU16NRC 0002899 Emery & Commons
AU16NRC 0003657 Emery & Commons
AU16AUST0000111 Errol McGrady
AU16MKY 0000869 Forever Young Syndicate
AU16SC 0001313 Forever Young Syndicate
AU16MKY 0000867 Forever Young Syndicate
AU16MKY 0000865 Forever Young Syndicate
AU16TRPC0002884 Gary Harvey
AU16TRPC0002883 Gary Harvey
AU16TCPC0001092 Geoff Hackett
AU16TCPC0000196 Geoff Hackett
AU16TCPC0001042 Geoff Hackett
AU16GYMP0000572 Geoff Potts
AU16ARM 0000508 Geoff Potts
AU16ARM 0000512 Geoff Potts
AU16ARM 0000502 Geoff Potts
AU16ARM 0000506 Geoff Potts
AU16ARM 0000530 Geoff Potts
AU16BHPC0002374 Graham Temperly
AU16BHPC0002387 Graham Temperly
AU16BHPC0002373 Graham Temperly
AU16ARM 0000322 Greg Page
AU16ARM 0000304 Greg Page
AU16ARM 0000312 Greg Page
AU16QPF 0007888 H & S Field
AU16COFF0000540 Hilltop Hoods
AU16COFF0000541 Hilltop Hoods
AU16GYMP0000838 Humpty Doo
AU16GYMP0000834 Humpty Doo
AU16GYMP0000835 Humpty Doo
AU16TRPC0000533 Ian Harvey Family
AU16QPF 0010974 J & K Syndicate
AU16QPF 0010929 J & K Syndicate
AU16QPF 0010961 J & K Syndicate
AU16QPF 0010968 J & K Syndicate
AU16QPF 10955 J & K Syndicate
AU16QPF 0010992 J & K Syndicate
AU16QPF 0010970 J & K Syndicate
AU16QPF 0008605 JCV Loft
AU16QPF 0008602 JCV Loft
AU16QPF 0008608 JCV Loft
AU16COFF0000263 John Payne
AU16TCPC0001310 Johnsen & Johnston
AU16GYMP0000588 Johnsen & Johnston
AU16TCPC0001325 Johnsen & Johnston
AU16TCPC0001537 Johnsen & Johnston
AU16TCPC0001330 Johnsen & Johnston
AU16UNIP0000127 JPS Syndicate
AU16UNIP0000138 JPS Syndicate
AU16UNIP0000130 JPS Syndicate
AU16GYMP0000658 JPS Syndicate
AU16GYMP0000517 Kahilipso Lofts
AU16DALB0000365 Kahilipso Lofts
AU16DALB0000355 Kahilipso Lofts
AU16DALB0000341 Kahilipso Lofts
AU16TWMB0001977 Kamara Lofts
AU16TWMB0001985 Kamara Lofts
AU16TWMB0001980 Kamara Lofts
AU16CAS 0000314 Karma Syndicate
AU16AUST0001801 Karma Syndicate
AU16AUST0001806 Karma Syndicate
AU16CAS 0000303 Karma Syndicate
AU16CAS 0000304 Karma Syndicate
AU16AUST0001803 Karma Syndicate
AU16WPF 0005055 Kauta - Wallarie
AU16TWMB0000097 Kauta - Wallarie
AU16TWMB0000096 Kauta - Wallarie
AU16WPF 0005058 Kauta - Wallarie
AU16WPF 0005045 Kauta - Wallarie
AU16WPF 0005059 Kauta - Wallarie
AU16NRC 0002214 Kehlet & Matthews
AU16NRC 0002235 Kehlet & Matthews
AU16NRC 0002213 Kehlet & Matthews
AU16GYMP0000565 Ken Tucker
AU16RIPA0000560 Ken Tucker
AU16GYMP0000640 Ken Tucker
AU16RIPA0000532 Ken Tucker
AU16RIPA0000531 Ken Tucker
AU16LCPC0000760 Kent Yang
AU16LCPC0000757 Kent Yang
AU16LCPC0000762 Kent Yang
AU16LCPC0000761 Kent Yang
AU16LCPC0000768 Kent Yang
AU16QPF 0001309 Kevin Miller
AU16GYMP0000682 Kevin Miller
AU16QPF 0010964 Kieran Malone
AU16NRC 0000835 Kieran Malone
AU16QPF 0010966 Kieran Malone
AU16AUSN0003949 Kiwi Reg
AU16AUSN0003964 Kiwi Reg
AU16GYMP0000527 Laurie Dennis
AU16GYMP0000639 Laurie Dennis
AU16LMAC0000936 Laurie Dennis
AU16LMAC0001055 Laurie Dennis
AU16LMAC0001030 Laurie Dennis
AU16LMAC0001062 Laurie Dennis
AU16LMAC0001044 Laurie Dennis
AU16LMAC0001034 Laurie Dennis
AU16LMAC0001058 Laurie Dennis
AU16LMAC 1036 Laurie Dennis
AU16GYMP0000417 Lee Beattie
AU16GYMP0000659 Lee Beattie
AU16GYMP0000406 Lee Beattie
AU16GYMP0000656 Loft Spare
AU16GYMP0000690 Loft Spare
AU16LISM0003164 Loongana Lofts
AU16WTB 0000715 Loongana Lofts
AU16GYMP0000567 M Johnston
AU16GYMP0000603 M Johnston
AU16TCPC0001501 M Johnston
AU16TCPC0001507 M Johnston
AU16TCPC0001523 M Johnston
AU16TCPC0001531 M Johnston
AU16TCPC0001505 M Johnston
AU16TCPC0001511 M Johnston
AU16MKY 0000220 Mackay Pigeons
AU16GYMP0000642 Mackay Pigeons
AU16MKY 0000649 Mackay Pigeons
AU16MKY 0000888 Mackay Pigeons
AU16MKY 0000440 Mackay Pigeons
AU16GYMP0000526 Mackay Pigeons
AU16MKY 0000915 Mackay Pigeons
AU16GYMP0000681 Mackay Pigeons
AU16MKY 0000127 Mackay Pigeons
AU16MKY 0000870 Mike Young
AU16OLDB0000130 Millrose Loft
AU16OLDB0000133 Millrose Loft
AU16OLDB0000146 Millrose Loft
AU16OLDB0000132 Millrose Loft
AU16OLDB0000200 Millrose Loft
AU16QPF 0006149 Milton Mangoes
AU16QPF 0006560 Milton Mangoes
AU16GYMP0000687 Milton Mangoes
AU16QPF 0006556 Milton Mangoes
AU16ROPC0001936 Mount Jackson Loft
AU16ROPC0001938 Mount Jackson Loft
AU16ROPC0001958 Mount Jackson Loft
AU16ROPC0001950 Mount Jackson Loft
AU16LCPC0000826 Murrumba Syndicate
AU16LCPC0000811 Murrumba Syndicate
AU16LCPC0000808 Murrumba Syndicate
AU16QPF 0005180 Neelloc Syndicate
AU16QPF 0005182 Neelloc Syndicate
AU17SAMD0000098 Nigel Cofey
AU17SAMD0000095 Nigel Cofey
AU17SAMD0000093 Nigel Cofey
AU16GYMP0000561 Norm Milnor
AU16NRC 0003642 P & P Emery
AU16NRC 0003639 P & P Emery
AU16NRC 0003653 P & P Emery
AU16NRC 0002860 P & P Emery
AU16COFF0000547 Painters & Plumbers
AU16QPF 0000593 Pat & Jill Murphy
AU16QPF 0000597 Pat & Jill Murphy
AU16GRPA0001473 Pat & Jill Murphy
AU16QPF 0000599 Pat & Jill Murphy
AU16GRPA0001498 Pat & Jill Murphy
AU16GYMP0000570 Pat & Jill Murphy
AU16GRPA0001411 Pat & Jill Murphy
AU16GRPA0001496 Pat & Jill Murphy
AU16GRPA0001448 Pat & Jill Murphy
AU16GRPA0001419 Pat & Jill Murphy
AU16GRPA0001427 Pat & Jill Murphy
AU16WPF 0006352 Pat & Jill Murphy
AU16GRPA0001401 Pat & Jill Murphy
AU16GRPA0001446 Pat & Jill Murphy
AU16RIPA0000772 Peter & Ted
AU16RIPA0000760 Peter & Ted
AU16RIPA0000768 Peter & Ted
AU16TWMB0001435 Peter Burton
AU16AUST0010515 Phoenix Lofts
AU16AUST0010530 Phoenix Lofts
AU16AUST0010513 Phoenix Lofts
AU16AUST0010531 Phoenix Lofts
AU16AUST0010517 Phoenix Lofts
AU16AUST0010512 Phoenix Lofts
AU16AUST0010534 Phoenix Lofts
AU16CCF 0005110 Pol Weyton
AU16CCF 0005102 Pol Weyton
AU16GYMP0000573 Pol Weyton
AU16CCF 0005098 Pol Weyton
AU16GLAD0000015 Pradella Pieds
AU16GLAD0000008 Pradella Pieds
AU16GLAD0000013 Pradella Pieds
AU16GYMP0000644 Pradella Pieds
AU16SA 0006274 Pradella Pieds
AU16GLAP0000015 Pradella Pieds
AU16GLAD0000002 Pradella Pieds
AU16GLAD0000014 Pradella Pieds
AU16GLAD0000005 Pradella Pieds
AU17SAMD0000097 Pradella Pieds
AU16GLAP0000014 Pradella Pieds
AU16QPF 0008084 Ramal Harch
AU16QPF 0009888 Ramal Harch
AU16NRC 0002218 Rangeview Lofts
AU16NRC 0002238 Rangeview Lofts
AU16GYMP0000678 Rangeview Lofts
AU16NRC 0002221 Rangeview Lofts
AU16NRC 0002234 Rangeview Lofts
AU16NRC 0002219 Rangeview Lofts
AU16NRC 0002222 Rangeview Lofts
AU16SC 0000053 Riley-P Syndicate
AU16SC 0000878 Riley-P Syndicate
AU16AUSN0003948 Rob Lindsay
AU16AUSN0003972 Rob Lindsay
AU16GYMP0000654 Rob Lindsay
AU16AUSN0003950 Rob Lindsay
AU16MOON0000028 Robin White
AU16MOON0000027 Robin White
AU16GYMP0000555 Robin White
AU16LMAC0002017 Rodney Howe
AU16LMAC0002015 Rodney Howe
AU16LMAC0002003 Rodney Howe
AU16MKY 0000207 Russ Beetham
AU16MKY 0000221 Russ Beetham
AU16MKY 0000216 Russ Beetham
AU16MKY 0000218 Russ Beetham
AU16SA 0019853 S Pradella & Watson
AU16SA 0017055 S Pradella & Watson
AU16SA 0019852 S Pradella & Watson
AU16SA 0017060 S Pradella & Watson
AU16SA 0017054 S Pradella & Watson
AU16GYMP0000608 Shane Q
AU16AUB 0001174 Shane Q
AU16AUB 0001170 Shane Q
AU16AUB 0001156 Shane Q
AU16STAR0000085 Starkoff Loft
AU16STAR0000045 Starkoff Loft
AU16STAR0000082 Starkoff Loft
AU16STAR0000074 Starkoff Loft
AU16STAR0000073 Starkoff Loft
AU16STAR0000055 Starkoff Loft
AU16STAR0000075 Starkoff Loft
AU16STAR0000048 Starkoff Loft
AU16STAR0000072 Starkoff Loft
AU16STAR0000070 Starkoff Loft
AU16QPF 0009052 Steve Beverly
AU16GYMP0000646 Steve Beverly
AU16QPF 0009049 Steve Beverly
AU16GYMP0000585 Steve Beverly
AU16SAMD0000017 Sunswift Lofts
AU16GYMP0000580 Sunswift Lofts
AU16SAMD0000016 Sunswift Lofts
AU16SAMD0000014 Sunswift Lofts
AU16SAMD0000011 Sunswift Lofts
AU16IRPC0000277 Team Outback
AU16IRPC0000270 Team Outback
AU16IRPC0000271 Team Outback
AU16IRPC0000279 Team Outback
AU16RIPA0000763 Ted Hussie
AU16RIPA0000759 Ted Hussie
AU16GYMP0000660 Ted Lewis
AU16MKY 0000463 Ted Lewis
AU16BRPC0001165 Thailand Syndicate
AU16IRPC0000189 Tony Garnett
AU16IRPC0000195 Tony Garnett
AU16IRPC0000184 Tony Garnett
AU16IRPC0000187 Tony Garnett
AU16IRPC0000188 Tony Garnett
AU16GYMP0000647 Toowoomba Racing Pigeon Club
AU16TWMB0000435 Toowoomba Racing Pigeon Club
AU16TWMB0001556 Toowoomba Racing Pigeon Club
AU16LAKE0001624 VanJack Lofts
AU16LAKE0001617 VanJack Lofts
AU16LAKE0001621 VanJack Lofts
AU16LAKE0001626 VanJack Lofts
AU16LAKE0001616 VanJack Lofts
AU16SC 0000850 VIP Lofts
AU16SC 0000834 VIP Lofts
AU16SC 0000864 VIP Lofts
AU16SC 0000059 VIP Lofts
AU16QPF 0009372 W & K Racing
AU16SC 0000836 WA Virals
AU16SC 0000863 WA Virals
AU16SC 0000837 WA Virals
AU16SC 0000881 WA Virals
AU16GYMP0000636 Wayne Hamilton
AU16TWMB0001166 Wayne Hamilton
AU16MARY0001246 Wil Connally
AU16MARY0001245 Wil Connally
AU16MARY0001242 Wil Connally
AU16MARY0001253 Wil Connally
AU16MARY0001250 Wil Connally
AU16BALB0000320 Winky Pop Syndicate